User: anonymous   Login
Location: Unspecified
(0.0000°N, 0.0000°E)
Time: 22:08:30
(UTC+00:00)
Language:

Vanguard 2 Rocket - Orbit

View from above orbital plane
View from above orbital plane
View from above satellite
View from above satellite

Ground track
Ground track

The orbit data is extracted from the following two-line orbital elements,

1    12U 59001B   18171.91025854 +.00000193 +00000-0 +93760-4 0  9992
2    12 032.9087 016.2837 1667622 211.1521 137.8761 11.44242963196627
Epoch (UTC): 20 June 2018 21:50:46
Eccentricity: 0.1667622
inclination: 32.9087°
perigee height: 553 km
apogee height: 3328 km
right ascension of ascending node: 16.2837°
argument of perigee: 211.1521°
revolutions per day: 11.44242963
mean anomaly at epoch: 137.8761°
orbit number at epoch: 19662

The dashed part of the orbit path shows where the satellite is in the earth's shadow,  

DLR